Temp
73 76 80 81 81 82 81 81 81 82 82 82 82 83 83 83 83 83 83 83 83 83 83 83 83 83 83 83 83 83 82 81 82 82 82 82 82 82 82 82 81 79 81
76 78 81 82 83 82 82 81 82 82 82 82 83 83 83 83 83 83 83 83 83 83 83 83 83 83 83 84 83 83 83 82 82 83 83 83 82 81 81 82 81 80 81
76 77 80 81 82 82 82 82 82 82 82 83 83 83 83 83 83 83 84 84 84 84 84 83 83 83 83 83 83 84 83 83 83 84 83 77 77 82 82 82 82 81 81
77 75 79 80 82 82 82 82 82 83 83 83 83 83 83 83 84 84 84 84 84 84 84 84 84 84 83 83 83 83 83 83 83 83 77 77 80 81 82 82 81 81 81
76 76 79 82 82 83 83 83 83 83 83 83 83 83 84 84 84 84 84 84 84 84 84 84 84 84 84 83 83 82 82 82 82 80 77 75 74 81 82 81 81 81 81
76 78 82 83 83 83 83 83 83 83 83 83 83 84 83 84 84 84 84 84 84 84 84 84 84 84 83 83 83 82 82 82 82 76 75 76 75 81 82 81 82 82 81
76 79 81 83 83 83 83 83 83 84 84 83 83 84 84 84 84 84 84 84 84 84 84 84 84 84 83 83 82 82 83 82 76 75 75 75 75 81 82 81 82 81 81
77 78 80 83 83 83 84 84 83 83 83 83 83 84 84 84 84 84 84 84 84 84 84 84 84 84 83 83 82 82 82 83 80 75 75 74 77 81 82 82 82 81 81
78 77 78 79 82 83 84 84 83 83 83 83 84 84 83 84 84 84 84 84 84 84 85 84 84 83 83 83 82 82 83 83 76 74 77 73 79 82 82 82 81 82 81
77 77 77 77 78 78 80 84 84 84 84 84 84 84 84 84 85 84 83 83 84 85 85 84 84 83 82 82 83 82 82 82 75 74 75 75 79 82 82 82 81 81 81
77 76 77 77 76 77 77 80 83 84 84 84 84 84 82 75 77 79 81 82 84 84 84 82 83 83 83 82 82 81 83 73 74 74 74 77 79 82 83 82 81 82 81
73 75 75 76 76 76 80 77 77 77 77 76 76 77 75 74 74 78 79 82 83 84 84 83 83 83 80 75 75 78 75 75 74 72 74 78 81 83 84 83 81 81 81
75 76 75 75 76 76 76 75 75 75 74 74 75 75 75 74 73 73 72 73 73 79 76 77 76 76 75 74 73 73 75 74 74 74 76 79 81 82 84 83 82 81 81
75 76 76 76 75 75 75 75 74 74 74 74 74 75 73 71 71 71 71 72 72 73 73 73 72 73 73 73 73 73 73 74 74 74 74 80 81 82 83 83 83 82 81
75 77 77 76 75 76 74 75 74 74 74 74 74 75 74 71 70 72 72 71 71 71 71 71 70 71 71 72 72 73 73 72 73 75 73 80 80 81 82 83 83 82 82
77 77 77 77 76 75 74 74 74 74 74 74 73 74 75 71 71 72 71 71 71 71 71 71 70 70 69 70 71 72 72 73 73 73 75 74 81 82 82 82 82 82 83
78 79 77 77 75 75 74 72 72 73 73 73 74 75 74 73 72 72 70 69 70 70 70 70 69 68 68 70 69 70 71 71 71 73 73 73 75 81 82 82 82 81 82
78 76 78 81 78 75 74 74 74 73 73 73 74 74 75 74 73 71 69 69 70 69 69 68 67 67 67 67 66 67 68 69 70 72 73 73 73 76 79 82 81 81 82
78 77 77 78 76 74 75 74 73 74 74 73 73 72 74 73 73 71 68 69 69 69 68 68 67 66 66 66 67 67 67 67 69 73 71 72 73 74 74 78 80 80 82
78 78 78 77 75 74 74 73 73 73 73 73 72 71 72 73 73 71 71 70 70 68 67 67 66 66 66 66 68 69 67 67 67 67 68 72 71 73 74 75 73 77 80
77 75 74 73 74 74 72 71 71 71 71 71 72 73 73 72 73 71 70 70 69 68 68 68 66 66 65 66 64 64 64 65 66 67 68 68 70 72 72 72 72 72 74
75 75 74 75 73 74 72 71 71 71 71 71 72 73 73 73 73 72 71 70 70 68 67 67 66 65 65 66 63 60 59 62 64 67 67 69 68 70 72 73 72 72 73
76 74 75 74 74 74 73 71 71 71 71 70 70 71 71 73 73 72 70 69 67 67 66 66 66 65 63 65 65 62 57 56 59 63 65 66 66 65 67 68 70 71 71
77 77 76 74 73 74 73 71 71 70 68 66 67 69 70 71 70 70 70 68 67 66 66 66 68 66 64 62 63 65 63 62 57 57 61 63 64 66 64 65 67 68 70
79 76 76 73 73 74 73 73 71 67 66 65 66 67 66 67 68 70 69 68 67 66 66 66 66 66 65 63 62 62 61 60 60 57 55 57 61 62 64 64 64 66 68
79 78 75 73 73 73 73 72 70 67 65 64 64 64 63 63 64 67 69 68 66 65 66 66 66 66 64 64 63 61 60 58 58 57 55 56 56 59 62 62 63 64 66
MSLP
1014.53 1014.33 1014.15 1014.25 1014.31 1014.31 1014.73 1014.91 1015.10 1015.38 1015.56 1015.81 1015.75 1015.89 1016.14 1016.25 1016.34 1016.47 1016.72 1016.79 1016.76 1016.85 1016.84 1016.80 1017.01 1017.01 1017.03 1017.10 1017.12 1017.09 1017.10 1017.05 1017.23 1017.29 1017.47 1017.42 1017.51 1017.56 1017.40 1017.50 1017.64 1017.70 1017.69
1014.09 1014.17 1014.07 1014.34 1014.51 1014.72 1014.83 1015.05 1015.45 1015.47 1015.57 1015.98 1016.15 1016.27 1016.27 1016.51 1016.57 1016.70 1016.89 1017.06 1016.87 1017.04 1017.06 1017.12 1017.21 1017.23 1017.18 1017.09 1017.14 1017.21 1017.27 1017.34 1017.30 1017.35 1017.47 1017.49 1017.65 1017.59 1017.61 1017.70 1017.82 1017.84 1017.89
1014.38 1014.26 1014.22 1014.45 1014.67 1014.87 1015.03 1015.26 1015.41 1015.73 1015.92 1016.19 1016.50 1016.43 1016.44 1016.53 1016.67 1016.72 1016.92 1017.00 1016.94 1017.07 1017.16 1017.20 1017.25 1017.35 1017.25 1017.24 1017.28 1017.22 1017.30 1017.37 1017.29 1017.32 1017.49 1017.76 1017.77 1017.72 1017.66 1017.81 1017.95 1018.04 1018.04
1014.44 1014.55 1014.54 1014.54 1014.82 1014.92 1015.30 1015.60 1015.69 1015.80 1016.12 1016.35 1016.57 1016.57 1016.50 1016.53 1016.82 1016.97 1017.08 1017.08 1017.14 1017.23 1017.24 1017.36 1017.35 1017.28 1017.36 1017.43 1017.47 1017.29 1017.31 1017.29 1017.27 1017.38 1017.53 1017.77 1017.84 1017.79 1017.79 1017.96 1018.15 1018.25 1018.28
1014.71 1014.73 1014.66 1014.81 1015.03 1015.17 1015.36 1015.55 1015.67 1015.93 1016.16 1016.28 1016.44 1016.57 1016.65 1016.71 1016.99 1017.12 1017.10 1017.21 1017.35 1017.48 1017.51 1017.43 1017.34 1017.37 1017.41 1017.51 1017.51 1017.45 1017.28 1017.27 1017.46 1017.57 1017.58 1017.66 1017.93 1017.89 1017.92 1018.11 1018.26 1018.39 1018.52
1014.89 1014.84 1014.91 1015.00 1015.19 1015.11 1015.39 1015.56 1015.78 1015.99 1016.16 1016.26 1016.51 1016.73 1016.88 1016.95 1017.22 1017.26 1017.29 1017.41 1017.60 1017.64 1017.58 1017.52 1017.51 1017.49 1017.49 1017.58 1017.63 1017.55 1017.32 1017.36 1017.43 1017.57 1017.64 1017.61 1017.81 1017.91 1018.00 1018.18 1018.27 1018.43 1018.63
1014.99 1014.94 1015.08 1015.16 1015.22 1015.26 1015.50 1015.82 1016.09 1016.24 1016.43 1016.64 1016.83 1016.99 1017.05 1017.16 1017.35 1017.41 1017.51 1017.67 1017.71 1017.71 1017.65 1017.65 1017.65 1017.62 1017.56 1017.67 1017.71 1017.62 1017.50 1017.53 1017.68 1017.65 1017.68 1017.69 1017.80 1017.86 1017.99 1018.18 1018.26 1018.49 1018.65
1015.11 1015.20 1015.23 1015.27 1015.39 1015.54 1015.81 1016.13 1016.33 1016.45 1016.63 1016.75 1017.03 1017.07 1017.22 1017.36 1017.53 1017.59 1017.69 1017.74 1017.71 1017.71 1017.79 1017.78 1017.71 1017.64 1017.55 1017.65 1017.76 1017.69 1017.66 1017.64 1017.58 1017.66 1017.60 1017.66 1017.75 1017.81 1017.91 1018.15 1018.34 1018.55 1018.78
1015.19 1015.33 1015.44 1015.52 1015.63 1015.74 1015.97 1016.18 1016.36 1016.46 1016.68 1016.72 1016.95 1017.12 1017.31 1017.48 1017.59 1017.67 1017.66 1017.80 1017.79 1017.75 1017.79 1017.72 1017.66 1017.59 1017.52 1017.57 1017.63 1017.58 1017.51 1017.62 1017.76 1017.77 1017.67 1017.79 1017.67 1017.80 1017.94 1018.09 1018.31 1018.52 1018.73
1015.45 1015.44 1015.64 1015.73 1015.76 1015.97 1016.19 1016.18 1016.31 1016.49 1016.76 1016.91 1017.15 1017.34 1017.45 1017.56 1017.67 1017.74 1017.80 1017.80 1017.73 1017.68 1017.68 1017.69 1017.66 1017.59 1017.51 1017.56 1017.54 1017.48 1017.51 1017.54 1017.72 1017.68 1017.72 1017.66 1017.58 1017.65 1017.80 1018.08 1018.32 1018.48 1018.72
1015.66 1015.72 1015.74 1015.79 1015.97 1016.16 1016.42 1016.54 1016.55 1016.76 1016.97 1017.08 1017.30 1017.50 1017.50 1017.70 1017.72 1017.76 1017.79 1017.81 1017.78 1017.76 1017.66 1017.61 1017.80 1017.63 1017.56 1017.57 1017.54 1017.34 1017.57 1017.77 1017.68 1017.59 1017.58 1017.47 1017.42 1017.44 1017.65 1018.00 1018.27 1018.33 1018.64
1015.71 1015.80 1015.82 1015.81 1016.07 1016.29 1016.34 1016.53 1016.71 1016.91 1017.10 1017.38 1017.56 1017.63 1017.70 1017.66 1017.80 1017.80 1017.75 1017.76 1017.81 1017.75 1017.66 1017.65 1017.76 1017.67 1017.64 1017.77 1017.77 1017.74 1017.70 1017.73 1017.71 1017.61 1017.39 1017.24 1017.25 1017.35 1017.44 1017.82 1018.13 1018.30 1018.45
1015.29 1015.71 1015.78 1015.90 1016.00 1016.31 1016.39 1016.58 1016.67 1016.97 1017.16 1017.38 1017.51 1017.66 1017.72 1017.78 1017.80 1017.79 1017.89 1017.90 1018.01 1017.90 1017.88 1017.83 1017.84 1017.94 1017.91 1017.97 1017.94 1017.81 1017.78 1017.74 1017.50 1017.32 1017.06 1017.03 1017.06 1017.23 1017.24 1017.54 1017.93 1018.16 1018.32
1015.33 1015.53 1015.76 1015.79 1016.07 1016.29 1016.28 1016.36 1016.54 1016.86 1017.04 1017.33 1017.44 1017.62 1017.82 1018.09 1018.14 1018.04 1018.08 1018.11 1018.16 1018.07 1018.13 1018.18 1018.32 1018.21 1018.02 1017.93 1017.92 1017.85 1017.69 1017.60 1017.35 1017.17 1016.93 1016.78 1016.88 1016.99 1017.07 1017.24 1017.56 1017.90 1018.12
1015.10 1015.36 1015.58 1015.77 1015.95 1015.99 1016.28 1016.33 1016.49 1016.69 1016.91 1017.15 1017.27 1017.35 1017.58 1017.92 1018.07 1017.96 1018.06 1018.19 1018.26 1018.25 1018.28 1018.34 1018.46 1018.37 1018.31 1018.13 1017.85 1017.68 1017.60 1017.55 1017.22 1016.94 1016.87 1016.59 1016.55 1016.76 1016.85 1016.99 1017.15 1017.60 1017.93
1014.71 1015.00 1015.25 1015.53 1015.51 1015.77 1016.19 1016.11 1016.32 1016.57 1016.57 1016.87 1017.06 1017.09 1017.18 1017.55 1017.82 1017.84 1018.09 1018.17 1018.25 1018.26 1018.31 1018.44 1018.42 1018.39 1018.29 1018.13 1017.84 1017.54 1017.38 1017.23 1017.04 1016.84 1016.61 1016.52 1016.34 1016.30 1016.47 1016.70 1016.92 1017.24 1017.47
1014.26 1014.58 1014.92 1015.10 1015.00 1015.62 1015.88 1016.10 1016.21 1016.42 1016.49 1016.58 1016.62 1016.73 1016.94 1017.21 1017.43 1017.60 1017.88 1018.16 1018.15 1018.21 1018.31 1018.31 1018.32 1018.32 1018.25 1017.97 1017.93 1017.56 1017.26 1017.03 1016.90 1016.70 1016.53 1016.48 1016.33 1016.17 1016.10 1016.27 1016.56 1016.90 1017.27
1013.85 1014.31 1014.52 1014.91 1015.21 1015.34 1015.62 1015.82 1016.08 1016.14 1016.17 1016.19 1016.38 1016.50 1016.73 1016.99 1017.13 1017.42 1017.78 1017.95 1017.95 1018.13 1018.23 1018.29 1018.44 1018.36 1018.26 1018.21 1018.05 1017.66 1017.36 1016.94 1016.68 1016.56 1016.34 1016.29 1016.27 1016.16 1015.97 1015.88 1016.09 1016.32 1016.72
1013.30 1013.70 1014.17 1014.58 1014.90 1015.15 1015.34 1015.58 1015.89 1015.96 1016.02 1016.10 1016.28 1016.45 1016.63 1016.85 1016.97 1017.13 1017.65 1017.78 1018.03 1018.03 1018.14 1018.34 1018.41 1018.45 1018.34 1018.16 1017.91 1017.57 1017.34 1017.07 1016.71 1016.35 1016.34 1016.14 1016.08 1016.04 1015.91 1015.70 1015.68 1015.92 1016.19
1012.90 1013.30 1013.75 1014.25 1014.61 1014.94 1015.31 1015.53 1015.71 1015.88 1015.96 1016.09 1016.27 1016.46 1016.65 1016.64 1016.71 1017.05 1017.29 1017.55 1017.68 1018.02 1018.15 1018.31 1018.45 1018.36 1018.32 1018.20 1018.07 1017.69 1017.16 1016.85 1016.80 1016.59 1016.23 1015.97 1015.87 1015.74 1015.59 1015.50 1015.48 1015.50 1015.60
1012.81 1013.23 1013.68 1014.22 1014.50 1014.88 1015.28 1015.65 1015.94 1016.04 1016.07 1016.17 1016.11 1016.20 1016.41 1016.51 1016.67 1016.97 1017.17 1017.32 1017.56 1017.90 1018.02 1018.15 1018.23 1018.22 1018.15 1018.02 1018.15 1017.70 1017.16 1016.91 1016.70 1016.44 1016.12 1015.98 1015.81 1015.54 1015.34 1015.35 1015.45 1015.49 1015.28
1012.49 1012.97 1013.48 1013.87 1014.23 1014.44 1014.64 1015.12 1015.49 1015.82 1015.93 1015.86 1015.88 1016.06 1016.16 1016.36 1016.56 1016.86 1017.06 1017.38 1017.51 1017.75 1017.86 1017.90 1018.04 1018.21 1018.17 1018.02 1018.10 1018.36 1018.16 1017.44 1016.93 1016.53 1016.41 1016.34 1016.19 1015.80 1015.54 1015.44 1015.48 1015.38 1015.23
1012.20 1012.57 1013.00 1013.31 1013.63 1013.97 1014.34 1014.88 1015.44 1015.83 1015.99 1016.08 1016.17 1016.27 1016.25 1016.29 1016.45 1016.67 1016.99 1017.24 1017.51 1017.69 1017.78 1017.80 1017.94 1018.16 1018.25 1018.20 1018.10 1018.29 1018.34 1018.47 1017.99 1017.01 1016.65 1016.48 1016.38 1016.14 1015.92 1015.75 1015.54 1015.48 1015.35
1011.50 1012.02 1012.46 1012.89 1013.20 1013.58 1014.05 1014.54 1015.02 1015.50 1016.06 1016.05 1016.05 1016.09 1016.25 1016.25 1016.47 1016.69 1016.94 1017.19 1017.39 1017.52 1017.71 1017.69 1017.67 1017.82 1017.95 1018.15 1018.23 1018.13 1018.12 1018.25 1018.41 1018.14 1017.26 1016.93 1016.64 1016.42 1016.22 1015.94 1015.76 1015.55 1015.38
1010.95 1011.53 1012.00 1012.54 1012.99 1013.28 1013.81 1014.22 1014.71 1015.31 1015.75 1015.75 1016.03 1016.24 1016.39 1016.48 1016.56 1016.62 1016.83 1017.07 1017.41 1017.51 1017.59 1017.62 1017.59 1017.62 1017.85 1018.16 1018.26 1018.25 1018.28 1018.38 1018.48 1018.64 1018.31 1017.69 1017.01 1016.67 1016.38 1016.16 1015.78 1015.60 1015.38
1010.58 1011.18 1011.68 1012.27 1012.64 1013.05 1013.43 1013.93 1014.40 1015.03 1015.44 1015.89 1016.21 1016.55 1016.59 1016.52 1016.57 1016.55 1016.65 1016.89 1017.17 1017.35 1017.44 1017.37 1017.46 1017.49 1017.55 1017.75 1017.85 1018.08 1018.25 1018.38 1018.57 1018.72 1018.85 1018.29 1017.83 1017.11 1016.50 1016.16 1015.94 1015.60 1015.43
Wind_Speed
4 5 12 16 17 20 19 16 17 18 17 16 16 17 16 15 13 12 11 10 10 10 11 12 10 9 9 8 9 9 9 8 8 8 8 9 9 8 8 7 8 5 9
5 5 15 17 18 17 18 17 18 17 17 16 15 16 16 14 13 12 12 10 10 10 11 10 7 7 7 8 7 6 6 6 7 6 7 7 5 2 5 7 6 5 8
5 6 10 17 17 18 18 17 18 18 18 15 14 15 15 15 14 14 12 11 11 10 9 8 6 5 6 6 6 6 4 5 5 5 6 3 1 6 8 9 8 9 10
6 4 8 16 17 18 18 18 17 18 18 15 14 14 15 14 13 12 12 10 9 9 8 7 5 4 4 4 4 5 4 4 4 5 4 3 2 4 7 8 5 8 10
5 5 10 15 16 18 17 16 16 17 17 16 14 14 13 13 12 12 11 10 8 7 6 6 4 2 3 3 3 3 4 4 4 3 3 4 0 4 6 6 4 9 9
5 5 11 15 16 17 17 16 16 16 15 14 13 13 12 12 11 10 9 8 7 6 5 4 2 2 1 1 1 2 3 6 5 2 4 5 4 5 7 8 6 11 10
6 6 9 14 14 15 15 14 13 13 13 12 11 12 11 11 10 9 8 7 6 5 3 3 4 3 4 3 3 4 3 5 3 3 4 4 5 8 8 8 9 8 11
7 5 7 13 14 13 14 13 12 11 12 11 11 11 11 10 9 8 7 6 5 4 3 4 6 5 5 4 4 4 4 5 3 3 4 3 7 9 7 10 10 10 9
6 5 5 6 12 14 13 14 13 13 12 12 11 10 9 9 9 8 7 5 5 4 4 6 7 6 5 5 5 4 5 7 3 3 4 3 9 11 9 10 11 12 11
5 5 5 5 5 6 7 16 16 13 13 12 10 9 9 9 8 7 5 6 7 7 6 6 7 7 5 5 6 6 5 7 3 4 2 3 10 12 11 11 11 11 14
5 5 6 5 5 4 4 6 11 12 11 12 10 9 6 2 2 3 4 5 4 6 8 6 6 5 5 2 6 7 5 2 3 3 3 8 11 13 12 12 13 13 14
8 6 5 6 6 5 5 4 5 4 4 4 4 4 3 3 3 3 2 4 4 6 8 4 4 5 6 3 2 5 3 3 3 3 3 10 12 14 13 14 14 14 14
11 8 7 5 6 5 4 3 2 2 2 3 5 4 3 1 1 1 1 2 1 4 2 4 4 3 4 3 4 3 4 4 3 3 5 9 13 15 15 15 15 15 15
10 10 8 6 5 6 4 3 3 3 2 3 4 5 3 1 1 2 1 1 2 1 2 3 2 3 4 4 4 5 5 3 3 3 5 11 10 15 16 16 15 16 16
12 11 10 9 8 8 5 4 4 4 3 4 4 5 4 4 4 3 3 3 2 1 1 1 1 3 4 5 5 4 4 4 5 3 2 11 12 13 15 16 17 17 17
13 12 11 11 9 6 5 5 4 3 4 4 4 5 5 4 4 4 3 2 1 1 1 1 2 3 3 3 5 5 5 4 5 5 3 4 11 12 15 15 17 18 18
11 12 12 12 8 8 7 5 3 4 4 4 5 6 6 5 5 5 3 1 3 2 3 2 2 2 3 3 4 4 5 5 4 5 4 4 5 11 15 16 16 17 18
10 10 11 10 10 8 6 4 4 4 4 4 4 4 5 5 6 5 3 4 3 2 2 2 2 3 3 3 3 4 4 5 5 5 4 4 4 4 9 17 17 17 18
13 12 11 11 9 8 6 5 5 6 4 4 3 3 3 4 5 4 3 3 3 2 2 2 2 1 2 4 4 4 4 4 5 5 6 6 5 5 4 10 17 17 18
11 12 11 8 7 7 5 4 2 2 2 2 3 3 4 2 3 4 4 4 3 2 2 2 2 1 3 3 4 5 5 4 3 4 5 5 4 5 5 6 5 7 18
8 9 8 8 7 5 3 3 1 3 2 2 3 4 4 3 5 4 3 3 3 3 3 3 2 3 2 1 2 4 4 3 2 3 3 3 5 5 4 4 3 3 4
11 11 9 10 8 8 4 3 3 3 2 2 2 4 4 5 5 4 4 3 2 1 2 2 3 1 2 0 1 1 4 5 3 3 2 3 5 4 4 5 4 5 5
11 12 12 11 10 8 7 3 2 3 2 1 1 2 3 6 5 4 3 3 2 2 3 2 2 3 1 1 1 2 1 2 3 3 4 4 6 4 4 5 5 5 5
13 11 10 10 10 8 8 6 6 4 4 3 3 3 4 5 5 5 4 4 4 3 3 2 2 1 2 1 1 0 1 2 1 4 3 3 5 5 6 4 4 5 5
12 11 10 9 8 7 8 7 6 4 3 2 2 6 4 2 3 5 5 5 4 3 3 3 2 3 2 2 2 1 0 1 0 0 4 4 3 3 4 4 4 4 5
11 11 9 9 10 8 9 9 9 8 6 4 3 4 3 1 2 4 5 5 4 3 3 3 2 3 3 2 2 2 2 3 2 2 2 4 3 4 4 4 4 4 4
Wind_Direction
209 202 148 136 145 143 149 157 148 140 134 128 126 127 127 124 122 118 112 106 110 111 104 100 103 100 99 97 90 88 89 98 103 100 99 102 94 89 86 84 92 107 118
154 172 139 143 147 146 142 141 140 137 136 134 124 125 124 123 120 116 117 116 111 101 101 100 104 110 111 99 94 90 94 99 104 112 112 105 90 101 122 101 98 119 120
142 139 130 141 143 138 133 132 135 136 135 133 134 130 127 127 127 128 135 131 118 116 119 129 141 134 116 107 105 97 92 113 130 138 120 83 24 81 115 107 106 120 109
134 123 135 135 134 132 134 136 131 130 137 138 141 139 137 136 136 135 130 123 129 136 136 138 148 133 127 126 102 99 107 121 157 131 111 145 310 83 100 112 126 119 123
112 116 133 128 132 134 135 136 135 138 144 146 149 147 146 139 136 134 131 132 135 138 142 151 155 151 158 140 122 120 139 151 152 137 138 133 355 139 125 120 157 135 133
115 117 127 134 138 137 143 146 147 149 151 153 156 153 146 140 139 138 133 136 153 153 158 157 179 183 252 233 186 242 180 165 186 230 205 166 161 167 166 149 168 153 143
133 130 134 142 144 143 148 150 151 150 151 147 148 150 147 145 148 143 145 155 167 172 189 216 239 261 275 281 276 262 238 186 169 210 183 163 174 176 172 170 154 145 158
129 127 138 139 147 151 156 156 155 152 148 146 151 157 154 157 156 156 165 178 196 202 243 269 278 277 283 291 289 276 248 223 223 250 179 173 189 181 171 158 165 160 172
134 136 132 144 155 160 164 167 166 165 160 164 164 166 165 166 171 180 192 206 229 233 265 290 295 301 295 296 288 272 253 244 210 246 212 218 199 192 180 178 176 173 178
145 155 155 155 157 162 171 176 177 175 171 180 178 180 186 190 190 203 215 225 237 252 264 289 299 300 300 306 298 289 269 262 257 271 245 219 199 195 188 192 187 192 179
176 160 164 174 152 177 169 186 183 181 184 191 193 192 198 194 200 212 238 239 242 279 275 274 289 298 308 322 313 316 312 281 274 259 238 239 209 199 192 196 193 197 185
179 188 179 168 175 181 190 196 173 189 180 193 187 183 171 203 204 227 270 261 248 286 297 301 298 328 356 353 324 352 338 316 286 282 257 233 216 211 207 203 202 203 195
179 181 193 182 183 182 204 183 189 194 196 190 199 191 196 168 96 66 47 39 31 303 358 352 8 348 351 355 325 311 312 319 301 262 256 250 215 220 219 210 205 206 203
180 187 186 195 184 202 208 193 192 185 202 199 208 200 182 166 194 241 186 160 39 56 85 24 10 330 335 317 297 304 305 297 294 272 255 238 226 223 226 213 212 209 206
182 191 193 194 193 208 205 198 194 202 199 211 208 210 186 179 198 194 206 192 173 211 41 66 340 333 314 320 314 313 308 297 286 276 263 256 223 232 236 226 212 215 216
185 189 192 201 195 193 207 202 200 195 225 190 213 218 206 183 200 193 211 220 214 236 304 276 279 307 310 306 305 309 306 306 315 295 267 261 260 238 231 235 228 218 222
189 185 189 200 195 183 203 205 196 205 219 208 216 211 203 194 202 188 199 236 257 235 266 271 295 302 309 311 303 306 303 307 304 305 283 270 271 258 233 233 231 225 225
181 181 187 193 192 187 188 187 187 190 187 187 198 192 188 189 201 196 197 217 232 236 265 274 288 306 300 296 296 296 298 300 295 292 291 269 259 257 246 234 234 230 225
188 184 185 185 184 177 177 198 191 189 197 200 177 179 171 218 217 203 178 237 246 242 245 246 277 223 295 308 304 293 283 276 283 302 298 297 282 265 244 248 235 234 237
187 189 186 181 177 176 179 179 198 187 195 197 186 202 179 187 147 172 184 219 209 208 261 246 266 295 259 281 300 298 285 284 294 283 280 294 290 275 253 240 249 238 237
184 177 178 171 189 165 168 163 162 204 183 201 214 212 185 196 172 181 196 186 162 183 229 238 247 246 292 319 330 316 314 336 287 294 317 319 323 311 277 263 284 275 268
182 190 181 191 187 196 174 159 157 160 205 195 170 199 203 178 172 171 180 191 198 228 285 252 205 226 258 251 198 91 353 334 321 9 354 14 20 359 1 346 316 289 272
184 185 189 190 194 195 182 131 100 85 65 40 201 160 189 183 181 189 194 190 201 179 217 226 201 186 197 313 295 153 35 268 327 328 349 358 5 351 344 339 330 321 303
193 188 189 192 193 195 176 164 160 170 178 223 194 170 175 185 186 180 194 198 191 187 199 209 186 189 135 163 3 279 272 184 265 325 326 332 345 342 337 330 326 316 301
179 185 192 187 192 187 182 176 173 169 188 183 136 149 172 200 198 207 190 175 182 201 208 203 193 190 171 158 188 198 110 39 34 299 296 314 330 320 309 320 317 317 319
183 183 182 181 199 191 185 184 177 182 169 152 160 168 187 205 280 206 171 173 189 199 202 215 223 203 198 197 183 183 176 169 203 177 246 302 294 296 304 312 332 340 342